[[{"header":{"parameterUnit":"m.s-1","parameterCategory":1,"la1":30.2991,"la2":30.254,"lo1":-89.0895,"lo2":-89.0444,"dy":0.0017,"dx":0.0017,"nx":28,"ny":28,"refTime":"2023-08-14T21:00:00:Z","depth":0,"parameterNumber":2,"parameterNumberName":"U-component_of_WINDS"},"data":[0,0,0,0,0,0,0,0,0,0,0,0,0,0,0,0,0,0,0,0,0,0,0,0,0,0,0,0,0,0,0,0,0,0,0,0,0,0,0,0,0,0,0,0,0,0,0,0,0,0,0,0,0,0,0,0,0,0,2.613,2.6133,0,2.6354,2.6357,2.6359,2.6326,2.6322,2.6318,2.6315,2.6552,2.6562,2.6572,0,0,0,0,0,0,0,0,0,0,0,0,0,2.5684,2.5693,2.613,2.6133,2.6135,2.6354,2.6357,2.636,2.6326,2.6322,2.6317,2.6313,2.6549,2.6561,2.6572,0,0,0,0,0,0,0,0,0,0,0,0,0,2.589,2.5695,2.6129,2.6145,2.6149,2.6353,2.6357,2.6361,2.6327,2.6322,2.6316,2.6311,2.6545,2.6559,2.6574,2.678,0,0,2.6619,2.6626,0,0,0,0,0,0,0,0,2.5879,2.5907,2.614,2.6144,2.6149,2.6306,2.6287,2.6501,2.6329,2.626,2.6315,2.6308,2.6475,2.6496,2.655,2.6791,2.6801,2.6621,2.663,2.6636,2.664,0,0,0,0,0,0,0,2.5864,2.5897,2.6219,2.6143,2.6149,2.6145,2.6167,2.6327,2.6397,2.6265,2.6263,2.629,2.6477,2.6536,2.6556,2.6805,2.662,2.6633,2.6643,2.6648,2.7233,2.7239,0,0,0,0,0,0,2.5845,2.5885,2.6212,2.6225,2.5997,2.6157,2.6183,2.6261,2.6395,2.641,2.6295,2.6288,2.6514,2.6539,2.6564,2.6819,2.6636,2.665,2.6658,2.7226,2.7234,2.7241,0,0,0,0,0,0,2.5835,2.5874,2.6203,2.6055,2.6096,2.6171,2.6259,2.6269,2.6328,2.6417,2.6431,2.6342,2.651,2.6543,2.6727,2.6826,2.6656,2.667,2.7218,2.7229,2.7238,2.7326,0,0,0,0,0,0,2.5822,2.5871,2.5947,2.6057,2.6104,2.6359,2.6265,2.6277,2.6353,2.6346,2.6465,2.648,2.6508,2.6706,2.6742,2.6844,2.6681,2.721,2.7223,2.7235,2.7315,2.7338,2.7358,0,0,0,0,0,2.5807,2.5963,2.5951,2.599,2.62,2.6365,2.6392,2.642,2.6361,2.644,2.6498,2.6476,2.6809,2.6725,2.6766,2.6873,2.7204,2.7219,2.7234,2.7305,2.7334,2.7357,0,0,0,0,0,0,2.5864,2.5977,2.5965,2.6161,2.6253,2.6359,2.6459,2.6448,2.6561,2.655,2.6582,2.6609,2.6797,2.6853,2.6757,2.7083,2.6999,2.7023,2.7039,2.7067,2.7088,2.7072,2.6694,0,0,0,0,0,2.5899,2.602,2.6113,2.6278,2.6325,2.6384,2.6457,2.647,2.6568,2.6608,2.6679,2.6778,2.6905,2.6989,2.711,2.7322,2.7351,2.7417,2.7438,2.7455,2.7477,2.76,2.7632,2.729,2.729,2.729,0,0,2.5974,2.6051,2.6125,2.6292,2.6364,2.6493,2.6417,2.6555,2.6653,2.6629,2.6808,2.6865,2.6978,2.7178,2.727,2.7231,2.7578,2.7474,2.7487,2.75,2.7618,2.7651,2.7679,2.73,2.7299,2.7297,0,0,2.6176,2.6244,2.6391,2.6466,2.6577,2.6617,2.6652,2.676,2.6797,2.6976,2.6963,2.7081,2.7298,2.7381,2.7451,2.769,2.7676,2.7729,2.7842,2.7962,2.7989,2.8013,2.8104,2.8135,2.7749,2.775,2.775,0,2.6256,2.6446,2.6468,2.661,2.6686,2.6669,2.6822,2.6894,2.7041,2.7096,2.7049,2.7325,2.7399,2.7622,2.768,2.7736,2.7782,2.7717,2.7982,2.8007,2.803,2.8117,2.815,2.7756,2.7755,2.7754,2.7754,0,2.6541,2.6673,2.6779,2.692,2.7008,2.7154,2.7204,2.729,2.7297,2.7343,2.753,2.7619,2.7761,2.7814,2.7822,2.8041,2.8013,2.7974,2.7891,2.8068,2.8151,2.8184,2.7764,2.7762,2.776,2.7759,0,0,2.6786,2.6939,2.6978,2.7045,2.7168,2.7273,2.7421,2.7558,2.7635,2.7737,2.7866,2.8052,2.8018,2.8098,2.8116,2.822,2.8411,2.8169,2.8172,2.8215,2.8664,2.8696,2.8734,2.8401,2.8407,2.8412,2.8656,0,2.7004,2.7262,2.7289,2.7521,2.7648,2.7636,2.7765,2.7858,2.7905,2.8023,2.8076,2.821,2.8151,2.8201,2.8303,2.8365,2.8502,2.8348,2.8526,2.8532,2.8502,2.8776,2.8809,2.9035,2.8688,2.8694,2.8697,0,2.7292,2.7403,2.7648,2.7758,2.7813,2.7928,2.8059,2.8169,2.8276,2.8304,2.8396,2.8401,2.8559,2.8467,2.8689,2.8584,2.8658,2.8701,2.871,2.8731,2.8628,2.8809,2.9107,2.9143,2.8748,2.8743,2.874,0,2.7453,2.7663,2.7838,2.7895,2.8026,2.8109,2.8169,2.8269,2.8352,2.8467,2.8523,2.8655,2.873,2.8835,2.8878,2.8806,2.91,2.901,2.9132,2.9132,2.9197,2.9193,2.9517,2.9238,2.9237,2.9237,2.9236,0,2.7697,2.7849,2.7913,2.8021,2.8193,2.8224,2.8395,2.8451,2.8541,2.8664,2.8661,2.8778,2.8825,2.895,2.8985,2.9167,2.9199,2.9231,2.9239,2.9234,2.923,2.9286,2.9273,2.9246,2.9244,2.9242,2.9241,0,2.7907,2.7955,2.8146,2.8255,2.8287,2.8409,2.8505,2.8613,2.8659,2.8815,2.8853,2.8928,2.9076,2.9128,2.9308,2.9332,2.9545,2.9537,2.9508,2.9512,2.9633,2.9623,3.0006,3.0061,2.9742,2.9745,2.9747,0,2.8061,2.8177,2.83,2.8381,2.8443,2.8573,2.8657,2.8694,2.8783,2.8916,2.9009,2.9155,2.9274,2.9512,2.9585,2.9724,2.9724,2.9849,2.9745,2.9738,2.9733,2.9727,2.9742,2.9869,2.9873,2.9875,2.9877,0,2.8331,2.835,2.847,2.8601,2.8702,2.8807,2.8909,2.8976,2.9029,2.913,2.928,2.9373,2.9557,2.9705,2.9848,2.9914,2.9908,2.9909,2.9946,2.9944,2.9925,2.9942,2.9567,2.9901,2.9899,2.9897,2.9896,2.9895,2.8522,2.8627,2.8731,2.8867,2.8947,2.9044,2.9151,2.9212,2.9336,2.9488,2.9502,2.9666,2.9776,2.9967,3.0039,3.0171,3.0138,3.0189,3.0203,3.0217,3.0229,2.9899,3.0197,3.0196,3.0196,3.0195,3.0195,0,2.8798,2.8864,2.8988,2.9131,2.924,2.922,2.9333,2.9427,2.957,2.967,2.9788,2.9964,3.0108,3.0193,3.0339,3.0429,3.043,3.0467,3.0463,3.048,3.0247,3.0203,3.0464,3.0464,3.0463,3.0463,3.0463,3.0463,2.8954,2.9133,2.9165,2.9386,2.9452,2.961,2.9678,2.9769,2.985,3.0045,3.0165,3.0218,3.0315,3.0468,3.0602,3.0624,3.068,3.0721,3.0741,3.0523,3.0495,3.0469,3.0428,3.0731,3.0732,3.0963,3.0965,3.0966]},{"header":{"parameterUnit":"m.s-1","parameterCategory":1,"la1":30.2991,"la2":30.254,"lo1":-89.0895,"lo2":-89.0444,"dy":0.0017,"dx":0.0017,"nx":28,"ny":28,"refTime":"2023-08-14T21:00:00:Z","depth":0,"parameterNumber":3,"parameterNumberName":"V-component_of_WINDS"},"data":[0,0,0,0,0,0,0,0,0,0,0,0,0,0,0,0,0,0,0,0,0,0,0,0,0,0,0,0,0,0,0,0,0,0,0,0,0,0,0,0,0,0,0,0,0,0,0,0,0,0,0,0,0,0,0,0,0,0,-0.1152,-0.1149,0,-0.0834,-0.083,-0.0827,-0.0839,-0.0844,-0.0848,-0.0853,-0.0507,-0.0494,-0.0481,0,0,0,0,0,0,0,0,0,0,0,0,0,-0.1756,-0.1744,-0.1153,-0.1149,-0.1145,-0.0835,-0.083,-0.0826,-0.0838,-0.0844,-0.0849,-0.0855,-0.0512,-0.0496,-0.048,0,0,0,0,0,0,0,0,0,0,0,0,0,-0.1471,-0.1741,-0.1153,-0.1114,-0.1108,-0.0836,-0.083,-0.0825,-0.0837,-0.0844,-0.0851,-0.0857,-0.0517,-0.0497,-0.0478,-0.0218,0,0,-0.0416,-0.0407,0,0,0,0,0,0,0,0,-0.1487,-0.1448,-0.1124,-0.1116,-0.1109,-0.0884,-0.0916,-0.0621,-0.0836,-0.0939,-0.0853,-0.086,-0.0626,-0.0597,-0.0522,-0.0202,-0.0187,-0.0414,-0.0402,-0.0393,-0.0388,0,0,0,0,0,0,0,-0.1506,-0.1462,-0.1026,-0.1119,-0.111,-0.1107,-0.1074,-0.086,-0.0747,-0.0931,-0.0931,-0.0894,-0.0623,-0.0541,-0.0514,-0.0182,-0.0415,-0.0397,-0.0385,-0.0377,0.0368,0.0375,0,0,0,0,0,0,-0.1537,-0.1479,-0.1036,-0.1017,-0.1319,-0.1091,-0.1054,-0.0949,-0.075,-0.0727,-0.0889,-0.0896,-0.0572,-0.0537,-0.0502,-0.0184,-0.0394,-0.0375,-0.0363,0.036,0.0369,0.0378,0,0,0,0,0,0,-0.155,-0.1498,-0.1049,-0.1248,-0.119,-0.1073,-0.0955,-0.0939,-0.0858,-0.0719,-0.0697,-0.0827,-0.0576,-0.053,-0.029,-0.0172,-0.0366,-0.0347,0.0351,0.0363,0.0373,0.0454,0,0,0,0,0,0,-0.1567,-0.1502,-0.1406,-0.1246,-0.118,-0.0846,-0.0948,-0.0928,-0.0825,-0.0832,-0.0655,-0.0632,-0.0578,-0.032,-0.027,-0.0148,-0.0332,0.0341,0.0356,0.037,0.0441,0.0466,0.0488,0,0,0,0,0,-0.1589,-0.1391,-0.1401,-0.1347,-0.1058,-0.084,-0.0802,-0.0749,-0.0816,-0.0715,-0.0627,-0.0638,-0.0195,-0.0295,-0.0239,-0.0109,0.0334,0.0352,0.0369,0.0431,0.0461,0.0488,0,0,0,0,0,0,-0.1532,-0.137,-0.1378,-0.1124,-0.0997,-0.0843,-0.0714,-0.0717,-0.0563,-0.0574,-0.051,-0.047,-0.0229,-0.0145,-0.026,0.0152,0.0062,0.0091,0.009,0.012,0.0143,0.0121,-0.0315,0,0,0,0,0,-0.1493,-0.1335,-0.1199,-0.0987,-0.0924,-0.0831,-0.0733,-0.0705,-0.0567,-0.0511,-0.0405,-0.0266,-0.0096,0.0016,0.0181,0.0451,0.0491,0.0568,0.0591,0.061,0.0637,0.0787,0.0823,0.0435,0.0434,0.0434,0,0,-0.1404,-0.1296,-0.1198,-0.0974,-0.0872,-0.0705,-0.0784,-0.0604,-0.0478,-0.0481,-0.0249,-0.0167,-0.0008,0.0248,0.0367,0.0326,0.0751,0.0632,0.0646,0.0663,0.0808,0.0845,0.0878,0.0446,0.0444,0.0442,0,0,-0.1157,-0.1062,-0.0875,-0.0774,-0.0621,-0.0561,-0.0517,-0.0363,-0.031,-0.0078,-0.0078,0.0075,0.0367,0.048,0.0576,0.0859,0.0856,0.0911,0.1037,0.1183,0.1214,0.1241,0.1346,0.1382,0.0936,0.0937,0.0937,0,-0.1064,-0.0819,-0.0777,-0.0597,-0.0497,-0.0502,-0.031,-0.0211,-0.0009,0.0063,0.0011,0.0375,0.0482,0.0765,0.0833,0.091,0.0967,0.0895,0.1204,0.1233,0.1259,0.136,0.1398,0.0943,0.0942,0.0941,0.0941,0,-0.0711,-0.0541,-0.0408,-0.0221,-0.0107,0.0079,0.0153,0.0265,0.0282,0.0349,0.0586,0.0713,0.0903,0.0971,0.0993,0.1258,0.1227,0.1189,0.1101,0.1301,0.1397,0.1436,0.0951,0.0949,0.0947,0.0946,0,0,-0.0412,-0.0212,-0.0163,-0.0079,0.0087,0.0222,0.0408,0.0586,0.0682,0.082,0.0981,0.1225,0.1189,0.1298,0.1332,0.1459,0.1678,0.1406,0.1411,0.1455,0.1981,0.2012,0.2055,0.1673,0.1681,0.1687,0.1969,0,-0.0146,0.0176,0.0217,0.0507,0.0666,0.0661,0.0823,0.0945,0.1011,0.116,0.1235,0.1408,0.1346,0.1412,0.1536,0.1625,0.1785,0.1604,0.183,0.1837,0.1795,0.2105,0.2139,0.2399,0.2006,0.2012,0.2017,0,0.021,0.0349,0.0652,0.0793,0.0862,0.1006,0.1172,0.1312,0.1451,0.149,0.1608,0.1625,0.1821,0.1718,0.1993,0.1868,0.1962,0.2019,0.2031,0.2059,0.1943,0.2146,0.2483,0.2524,0.2076,0.2071,0.2067,0,0.0401,0.0665,0.088,0.0952,0.1121,0.1223,0.1299,0.143,0.1534,0.168,0.1749,0.1919,0.2014,0.2146,0.221,0.2128,0.2481,0.2383,0.2524,0.2523,0.2605,0.26,0.2967,0.2656,0.2655,0.2655,0.2654,0,0.0698,0.0885,0.0968,0.1101,0.131,0.1356,0.1564,0.1638,0.1753,0.1904,0.191,0.2053,0.2125,0.228,0.2331,0.2552,0.2594,0.2635,0.2648,0.2638,0.2633,0.2705,0.2691,0.2665,0.2663,0.2661,0.2659,0,0.095,0.1012,0.1247,0.1384,0.1423,0.1572,0.1693,0.1825,0.1885,0.2076,0.2124,0.2224,0.2406,0.2479,0.2705,0.2738,0.2994,0.299,0.2946,0.2951,0.3089,0.3077,0.352,0.3582,0.3225,0.3228,0.3231,0,0.1138,0.128,0.143,0.1528,0.1605,0.1764,0.1868,0.1918,0.2027,0.2192,0.2305,0.2484,0.2632,0.2923,0.302,0.3192,0.3195,0.3338,0.3222,0.3207,0.3203,0.3196,0.3212,0.3362,0.3366,0.3369,0.3371,0,0.1466,0.1488,0.1634,0.1791,0.1913,0.204,0.2165,0.2247,0.2316,0.2439,0.2621,0.2734,0.2959,0.314,0.3316,0.34,0.3401,0.3405,0.3448,0.3443,0.3412,0.3434,0.3009,0.3397,0.3394,0.3392,0.3391,0.339,0.1696,0.1821,0.1945,0.2108,0.2204,0.232,0.2449,0.2523,0.2674,0.2857,0.2878,0.3075,0.3209,0.3444,0.3535,0.3692,0.3657,0.3717,0.3734,0.375,0.3761,0.3381,0.3724,0.3724,0.3723,0.3723,0.3722,0,0.2027,0.2105,0.2253,0.2423,0.2552,0.2529,0.2665,0.2776,0.2947,0.3068,0.321,0.342,0.3593,0.3699,0.3875,0.3981,0.3985,0.4026,0.4022,0.4042,0.3781,0.3728,0.402,0.402,0.4019,0.4019,0.4019,0.4019,0.2216,0.2428,0.2464,0.2725,0.2803,0.299,0.307,0.3177,0.3274,0.3506,0.3647,0.3712,0.3829,0.4012,0.4171,0.4198,0.4266,0.431,0.4335,0.4091,0.4061,0.4032,0.3983,0.4322,0.4323,0.4584,0.4587,0.4588]}]]